Regional Weather Roundup
Issued by NWS Charleston, SC

Current Version | Previous Version | Text Only | Print | Product List | Glossary On
Versions: 1 2 3 4 5 6 7 8 9 10 11 12 13 14 15 16 17 18 19 20 21 22 23 24 25 26 27 28 29 30 31 32 33 34 35 36 37 38 39 40 41 42 43 44 45 46 47 48 49 50
000
ASUS42 KCHS 250125
RWRCHS

REGIONAL WEATHER ROUNDUP
NATIONAL WEATHER SERVICE CHARLESTON SC
900 PM EDT THU JUL 24 2014

NOTE: "FAIR" INDICATES FEW OR NO CLOUDS BELOW 12,000 FEET WITH NO
SIGNIFICANT WEATHER AND/OR OBSTRUCTIONS TO VISIBILITY.

NOT ALL STATIONS ARE QUALITY CONTROLLED BY THE NATIONAL
WEATHER SERVICE. USE DATA WITH CAUTION...ESPECIALLY
DEWPOINT OBSERVATIONS.

SCZ027-030-031-034>040-042>050-250200-
...SOUTH CAROLINA...

CITY           SKY/WX    TMP DP  RH WIND       PRES   REMARKS
N CHARLESTON   PTCLDY    84  77  79 S8        29.91R HX  94
WATERFRONT PRK   N/A     84 N/A N/A SW12G17     N/A
FORT JOHNSON   NOT AVBL
MOUNT PLEASANT FAIR      84  79  84 SW7       29.92R HX  96
JOHNS ISLAND   CLEAR     84  75  74 SW10      29.92S HX  92
PINOPOLIS        N/A     90  73  58 SW5       29.82R HX  98
MONCKS CORNER    N/A     82  75  78 CALM      29.91R
SUMMERVILLE    NOT AVBL
BEAUFORT MCAS  PTCLDY    85  73  67 W5        29.92R HX  91
BEAUFORT ARPT  FAIR      86  79  79 S5        29.91R HX  99
HILTON HEAD IS CLEAR     84  81  89 S9        29.94R HX  98
GEORGETOWN     NOT AVBL
WALTERBORO     CLEAR     84  68  58 SW3       29.92R
ORANGEBURG     CLEAR     83  72  69 SW5       29.90R
BARNWELL       FAIR      84  72  65 W3        29.93R
AIKEN          MOCLDY    79  73  83 CALM      29.97R THUNDER
MANNING        FAIR      84  73  70 CALM      29.89S HX  91
KINGSTREE      NOT AVBL
COLUMBIA       MOCLDY    86  69  56 SW6       29.90R HX  90
SUMTER         PTCLDY    77  72  83 NW2       29.89R
FLORENCE       TSTM      76  71  85 S10G24    29.91R
MYRTLE BEACH   PTCLDY    86  75  70 SW8       29.88R HX  95
N MYRTLE BEACH CLEAR     84  78  82 SW15      29.88R HX  95

$$

GAZ063-065-086>088-099>101-113>116-118-119-134-136>141-150-250200-
...GEORGIA...

CITY           SKY/WX    TMP DP  RH WIND       PRES   REMARKS
SAVANNAH ARPT  PTCLDY    87  71  58 SW6       29.93R HX  93
HUNTER AAF     CLEAR     86  72  64 S3        29.92R HX  92
FORT STEWART   PTCLDY    86  71  60 W2        29.93R HX  91
STATESBORO     NOT AVBL
SYLVANIA       CLEAR     83  74  75 SW3       29.93R HX  90
CLAXTON        FAIR      81  79  94 CALM      29.95R
THOMSON        PTCLDY    78  78 100 CALM      29.97S
AUGUSTA-BUSH   MOCLDY    84  70  62 W3        29.91R
AUGUSTA-DANIEL MOCLDY    84  70  62 W3        29.93R
SWAINSBORO     FAIR      86  73  66 CALM      29.95R HX  93
VIDALIA          N/A     82  72  69 SW5       29.95S
ALMA           CLOUDY    82  69  64 W6        29.96R
WAYCROSS       CLOUDY    80  79  95 W3        29.99R
JESUP          NOT AVBL
BRUNSWICK      CLEAR     82  72  69 CALM      29.96R
SAINT SIMONS   PTCLDY    85  79  82 S13       29.95R HX  98

$$

SCZ027-028-034-036>038-045-046-048>050-GAZ119-141-250200-
...LAKE AND SUPPLEMENTAL COASTAL OBSERVATIONS...

STATION/POSITION TIME  TEMP    WIND        PRES    WAVE   SWELL
                       AIR SEA DIR/SP/G            HT/PER HT/PER/DIR
                 (UTC) (F)     (DEG/KT/KT) (MB)    (FT/S) (FT/S/D)
UPR LAKE MARION  NOT AVBL
WINYAH BAY       0100   84     210/ 10     1012.0S
LAKE MURRAY      0100   84     240/  7/  9 1011.9S
ACE BASIN NERRS  0100   85        CALM     1013.0S
FORT PULASKI     0100   85     200/  8/ 15 1013.9R
SAPELO ISLAND    0100   85     180/ 12     1015.0R

$$

ANZ835-935-AMZ111-154-330-350-352-354-374-450-454-472-250200-
...C-MAN AND BUOY OBSERVATIONS...

STATION/POSITION TIME  TEMP    WIND        PRES    WAVE   SWELL
                       AIR SEA DIR/SP/G            HT/PER HT/PER/DIR
                 (UTC) (F)     (DEG/KT/KT) (MB)    (FT/S) (FT/S/D)
FOLLY BEACH CMAN 0100   84     220/ 18/ 21 1013.6R
BUOY 41004       0100   83 83  210/ 17/ 21 1012.2R   4/ 5   2/13
BUOY 41008       0100   84 84  190/ 17/ 21 1013.6R   3/ 4   2/120/ 7
5E ST. MARYS GA  0100      85                N/A     3/ 4
FRYING PAN BUOY  NOT AVBL
BUOY 41025       0100          VRB 16/ 19  1011.5F   4/ 8   2/160/ 8
CAPE LOOKOUT NC  0100   76     170/ 10/ 11 1011.8F
BUOY 41002       NOT AVBL
BUOY 41010       0100   84 84  200/ 12/ 14 1017.3R   3/ 7   2/110/ 7
BUOY 41012       NOT AVBL
ST AUGUSTINE FL  0100   84     200/  9/ 11 1015.8R
CAPERS NEARSHORE 0000   84     220/ 17/ 19   N/A
FRIPP NEARSHORE  NOT AVBL


$$


USA.gov is the U.S. government's official web portal to all federal, state and local government web resources and services.